STARLINK-1933

Last updated on Tue Nov 24 2020 00:02:03 GMT+0000 (Coordinated Universal Time)

1 46791U 20074BE 20328.58334491 -.00164355 00000-0 -18193-2 0 9992 2 46791 53.0547 13.4186 0001556 52.6936 12.8060 15.62841129 1854

Satellite not in orbit

STARLINK-1933